JO-97
1 43803U 18099AX  24361.12613645  .00019532  00000-0  10571-2 0  9995
2 43803  97.4950  56.1518 0008602  10.2973 349.8434 15.14650251331673
Suomi 100
1 43804U 18099AY  24361.11961827  .00017601  00000-0  99440-3 0  9991
2 43804  97.5011  55.7995 0013877   7.8916 352.2531 15.13087553331636
ISAT
1 43879U 18111D   24361.50485793  .00030320  00000-0  13928-2 0  9993
2 43879  97.6064 267.3254 0013361  59.1618 301.0929 15.20253510328537
UWE-4
1 43880U 18111E   24361.47939237  .00023594  00000-0  11550-2 0  9992
2 43880  97.6001 266.7006 0016658  67.6646 292.6351 15.18057468328518
Sparrow
1 43881U 18111F   24361.26589762  .00026958  00000-0  12124-2 0  9999
2 43881  97.6179 269.4220 0010965  91.4197 268.8294 15.21034103328576
Prox-1
1 44339U 19036A   24361.53472440  .00020415  00000-0  29855-2 0  9990
2 44339  23.9989  61.4012 0007218   3.6048 356.4499 14.74155437293586
SONATE
1 44400U 19038Q   24361.72672613  .00065538  00000-0  10862-2 0  9999
2 44400  97.7120   6.6950 0013518 125.7911 234.4599 15.51833993303740
Taurus 1
1 44530U 19059C   24361.79448235  .00016608  00000-0  33549-2 0  9995
2 44530  98.5889 128.0901 0010667 183.9057 176.2061 14.61421993279831
Duchifat 3
1 44854U 19089C   24361.20352081  .00044329  00000-0  15033-2 0  9995
2 44854  36.9509 313.0087 0013096 263.5465  96.3795 15.29511639277479
TO-108
1 44881U 19093C   24361.77730238  .00002917  00000-0  34848-3 0  9999
2 44881  97.8122  74.8081 0015153  55.6709 304.5938 14.84889364271615
FloripaSat 1
1 44885U 19093G   24361.77488515  .00013031  00000-0  11938-2 0  9994
2 44885  97.8288  83.3727 0011820  41.6234 318.5883 14.95005121272099
RS-44
1 44909U 19096E   24361.43655526  .00000022  00000-0  51333-4 0  9996
2 44909  82.5220 337.0222 0216850 321.9858  36.6105 12.79737263233561
UPMSat 2
1 46276U 20061E   24361.70255507  .00044787  00000-0  85791-3 0  9994
2 46276  97.2722  67.0887 0001679 126.0076 234.1330 15.47905265239809
AmicalSat
1 46287U 20061R   24361.75656534  .00562857  00000-0  18984-2 0  9998
2 46287  97.3119  73.3150 0003697 276.1559  83.9292 15.88680235239450
SALSAT
1 46495U 20068K   24361.46749879  .00014657  00000-0  71197-3 0  9995
2 46495  97.8410 326.5863 0013504  21.7782 338.4022 15.18483870233434
CubeSX-Sirius-HSE
1 47951U 21022V   24361.81505997  .00074032  00000-0  15792-2 0  9995
2 47951  97.4398 261.6384 0009826 150.5808 209.5996 15.44580150208092
CubeSX-HSE
1 47952U 21022W   24361.80655923  .00071402  00000-0  15075-2 0  9992
2 47952  97.4394 261.7841 0009894 149.3243 210.8586 15.44894623208107
KSU-Cubesat
1 47954U 21022Y   24361.70008303  .00123208  00000-0  17757-2 0  9998
2 47954  97.4394 264.6195 0009194 131.5628 228.6416 15.55539798207992
GRBAlpha
1 47959U 21022AD  24361.82994989  .00072254  00000-0  15277-2 0  9999
2 47959  97.4395 261.9752 0009740 149.5691 210.6125 15.44849900206931
Orbicraft-Zorkiy
1 47960U 21022AE  24361.84145541  .00106530  00000-0  17879-2 0  9990
2 47960  97.4410 264.4072 0009000 137.9299 222.2646 15.51379834207758
TUBIN
1 48900U 21059X   24361.77354950  .00043673  00000-0  97370-3 0  9996
2 48900  97.6616 154.0197 0005456 120.1360 240.0428 15.43443413194486
LEDSAT
1 49069U 21073D   24361.73690916  .00047450  00000-0  12088-2 0  9999
2 49069  97.4145  73.0807 0013589 320.6126  39.4130 15.39314157185914
CUTE
1 49263U 21088D   24361.72501214  .00056439  00000-0  16076-2 0  9990
2 49263  97.4740  68.1171 0011418 120.0201 240.2177 15.35839185179011
TeikyoSat 4
1 49396U 21102B   24361.55582059  .00004448  00000-0  30615-3 0  9990
2 49396  97.4351  39.8487 0012399 346.7393  13.3507 15.06322554171696
Z-Sat
1 49399U 21102E   24361.77282118  .00009038  00000-0  52921-3 0  9994
2 49399  97.4068  42.2593 0017816 318.9595  41.0295 15.11910015172058
KOSEN 1
1 49402U 21102H   24361.67063413  .00014045  00000-0  72203-3 0  9992
2 49402  97.3985  44.4739 0015742 297.5265  62.4368 15.16465208172263
HO-113
1 50466U 21131B   24361.80699937  .00001697  00000-0  54855-3 0  9999
2 50466  98.5200  85.9850 0003132 268.6140  91.4689 14.40384105157727
IRIS-A
1 51044U 22002BN  24361.75489717  .00071684  00000-0  12699-2 0  9999
2 51044  97.3580  69.4570 0004734  67.4113 292.7639 15.50017171164040
Foresail-1
1 52766U 22057AL  24361.32868522  .00061157  00000-0  10833-2 0  9991
2 52766  97.5964 133.8251 0006644 165.8209 194.3229 15.50052805144013
SNUGLITE 2
1 52899U 22065F   24361.36779332  .00003522  00000-0  70682-3 0  9992
2 52899  98.1425 139.3055 0006496 271.1578  88.8879 14.62295353132336
IO-117
1 53106U 22080B   24357.45145358 -.00000003  00000-0  00000-0 0  9997
2 53106  70.1377 127.1156 0008284  64.6124 295.5392  6.42557665 57362
FO-118
1 54684U 22167C   24361.77630892  .00160109  00000-0  18959-2 0  9994
2 54684  97.6124 154.8451 0005162 196.2654 163.8437 15.60702535113970
SO-120
1 56992U 23084BU  24361.82419494  .00213428  00000-0  21678-2 0  9991
2 56992  97.5338 127.2758 0004258  18.0468 342.0941 15.64498617 85856
MRC-100
1 56993U 23084BV  24361.34837015  .00826544  28839-3  24814-2 0  9999
2 56993  97.5251 129.1754 0007607 317.8731  42.1958 15.92265131 85942
UmKA 1 (RS40S)
1 57172U 23091G   24361.82193397  .00012656  00000-0  73779-3 0  9991
2 57172  97.5866  52.1953 0015442 177.2962 182.8354 15.12017387 82556
CubeBel-2 (EU11S)
1 57175U 23091K   24361.79503114  .00016589  00000-0  90666-3 0  9995
2 57175  97.5864  52.5265 0013347 187.2122 172.8920 15.14293510 82574
VERONIKA
1 58261U 23174F   24361.76808041  .00061579  00000-0  16338-2 0  9990
2 58261  97.4392  76.5587 0008189 280.2038  79.8283 15.38055586 63120
KAFASAT
1 58317U 23174BP  24361.81153391  .00114504  00000-0  20477-2 0  9995
2 58317  97.4309  78.7843 0007069 250.2138 109.8351 15.49566058 63294
ENSO
1 58470U 23185J   24361.78568206  .00042757  00000-0  11755-2 0  9997
2 58470  97.4015  67.8701 0008829 319.3589  40.6996 15.37040957 59577
EIRSAT-1
1 58472U 23185L   24361.78272759  .00054174  00000-0  13615-2 0  9997
2 58472  97.4006  68.2936 0008234 318.0745  41.9870 15.39755980 59604
SONATE-2
1 59112U 24043Q   24361.28295831  .00024165  00000-0  90180-3 0  9994
2 59112  97.4951 124.4019 0012399 344.9502  15.1366 15.27325499 45038
MO-122
1 60209U 24125G   24361.52274511  .00025174  00000-0  93025-3 0  9995
2 60209  97.2973 209.7436 0023397  10.8495 349.3244 15.27449817 26687
GRBBeta
1 60237U 24128C   24361.24029650  .00010177  00000-0  81967-3 0  9999
2 60237  61.9938 294.9615 0032952  17.4877 342.7339 15.00013544 25378
Curium One
1 60242U 24128H   24361.79493665  .00017537  00000-0  13703-2 0  9995
2 60242  61.9840 293.0170 0033151  10.5777 349.6003 15.00800611 25460
ROBUSTA-3A
1 60243U 24128J   24361.82222602  .00018091  00000-0  14253-2 0  9998
2 60243  61.9907 293.2779 0031145   8.2487 351.9108 15.00521014 25464
CatSat
1 60246U 24125J   24361.60133887  .00021871  00000-0  84711-3 0  9997
2 60246  97.2770 210.4876 0046558 322.0541  37.7419 15.25151619 24794
CySat-1
1 61501U 98067WZ  24361.40875906  .00579845  13904-3  19613-2 0  9998
2 61501  51.6257  74.0440 0014806 355.5532   4.5340 15.89179822 12413
AO-123
1 61781U 24199AY  24361.79100926  .00016683  00000-0  68239-3 0  9993
2 61781  97.3789 225.7695 0019082  62.1450 298.1717 15.24241333 51742
